Theta_e
306 305 305 306 306 306 305 304 304 305 308 308 307 306 304 303 305 305 304 306 306 304 302 303 302 302 301 301 302 304 303 305 302 304 300 299 298 297 297 295 294 292 291
302 301 300 300 300 300 299 299 300 299 300 299 299 298 297 297 297 298 298 298 297 296 297 296 295 297 295 296 296 296 295 295 297 295 295 294 293 292 291 291 292 292 290
298 298 297 297 297 297 296 296 297 297 297 296 295 294 294 294 294 294 295 295 295 294 294 294 293 293 292 291 291 290 291 293 291 291 290 290 291 290 289 289 289 289 290
296 295 294 294 294 294 294 294 294 294 294 294 294 293 292 291 291 292 292 292 293 293 292 292 291 290 289 289 289 288 289 288 288 288 287 287 287 288 286 285 285 285 285
293 292 291 292 292 292 292 292 292 292 292 292 292 291 291 290 290 289 290 291 291 290 290 290 290 286 288 290 289 288 288 287 286 286 285 284 284 283 284 284 283 283 283
291 290 291 291 290 290 290 290 290 290 290 290 290 290 288 289 292 292 290 289 289 289 287 288 288 286 288 290 291 291 288 286 286 286 284 285 286 286 286 285 285 282 280
289 289 289 289 288 288 289 289 288 288 288 288 288 288 287 289 292 291 289 288 288 287 286 285 286 286 285 286 288 289 287 291 291 289 286 286 286 286 287 285 284 283 282
287 287 287 287 287 287 287 287 286 286 286 286 286 286 286 289 291 291 289 287 286 285 285 284 284 285 287 285 285 285 285 285 286 286 289 288 287 287 286 286 284 283 281
286 286 286 286 286 286 286 285 285 285 284 284 284 284 284 285 291 289 286 285 284 284 285 286 287 287 289 289 285 284 284 285 289 291 290 289 287 285 284 282 278 275 272
285 285 284 285 285 285 284 284 284 284 284 283 283 283 282 284 290 289 286 284 282 283 285 285 286 285 287 287 284 284 282 282 285 285 286 283 282 281 281 280 278 275 275
284 284 283 283 283 283 283 283 283 283 283 282 283 282 282 283 285 288 288 284 282 283 284 284 284 286 286 285 284 283 283 283 283 282 280 279 279 279 277 277 278 276 274
282 281 280 279 281 282 279 281 280 281 279 278 280 280 281 282 284 285 286 286 286 283 283 284 284 284 283 283 281 282 282 279 276 274 274 274 274 273 273 275 275 277 277
277 275 275 276 279 279 278 279 277 278 276 278 278 277 278 280 280 283 283 284 284 284 284 284 285 282 280 278 280 279 275 274 272 270 270 272 272 272 271 269 269 271 267
271 273 275 274 276 275 277 278 276 275 275 276 276 274 277 276 281 282 281 281 282 283 283 283 282 281 278 274 272 272 272 272 271 268 266 265 266 266 265 267 262 262 259
271 272 272 274 272 274 275 275 277 277 277 271 271 272 269 270 282 283 282 281 281 282 281 281 278 276 268 267 266 266 266 266 264 261 261 260 261 262 262 260 258 257 257
268 269 269 270 270 272 271 273 280 283 284 284 283 278 280 283 283 282 281 281 281 282 271 277 273 265 263 261 260 261 261 260 259 260 257 257 257 258 258 258 257 254 255
260 265 267 268 269 268 268 268 269 275 282 284 284 283 283 282 281 281 281 280 279 275 266 264 260 261 259 259 259 259 258 258 256 258 256 256 256 255 256 257 256 253 255
259 262 263 264 264 264 264 265 266 268 272 272 279 280 282 282 281 279 280 272 262 264 257 257 257 257 257 257 257 257 257 256 256 256 256 253 252 253 254 253 253 251 250
262 262 261 263 264 264 264 266 269 270 267 267 272 277 280 281 278 276 274 260 257 256 255 256 254 255 255 254 253 253 253 253 252 252 251 251 250 251 251 249 250 252 251
258 263 261 259 261 264 265 265 265 268 271 270 272 274 273 272 269 266 262 257 258 255 254 255 253 252 253 253 252 252 252 252 252 251 250 250 249 249 249 249 248 250 249
254 255 258 255 257 258 261 263 266 266 269 271 272 273 275 270 267 263 260 256 256 254 253 253 252 252 251 251 251 251 252 250 249 249 249 248 247 250 246 247 247 246 247
252 252 252 254 255 256 257 260 262 264 264 265 265 269 272 266 264 262 259 258 257 253 253 254 251 251 250 252 251 251 250 250 248 247 248 247 247 246 247 247 247 247 247
252 252 252 252 252 254 255 255 258 260 261 263 263 262 261 262 261 259 258 257 258 257 255 252 251 251 248 248 248 251 253 251 249 246 247 247 246 246 245 246 246 247 247
251 251 252 252 252 252 253 254 254 257 260 259 257 257 258 258 257 257 258 258 259 255 253 250 249 250 249 248 246 246 246 245 243 245 247 248 246 245 246 245 245 245 246
250 251 251 251 251 252 252 253 254 254 255 256 256 256 255 256 256 256 258 258 257 257 251 248 248 249 249 249 248 249 252 251 246 247 245 247 247 245 244 244 244 246 245
250 250 250 250 252 251 252 253 253 254 254 254 255 255 255 256 256 257 258 258 258 252 250 249 249 249 249 248 249 253 260 258 251 250 246 249 249 245 244 244 244 244 244
Wind_Speed
10 11 9 8 7 5 7 7 5 6 5 7 7 9 7 8 9 7 7 7 8 7 8 6 6 5 4 4 4 4 3 3 5 4 2 3 4 4 4 3 3 3 3
13 9 9 5 9 10 8 8 5 9 8 7 9 11 8 8 8 7 7 6 7 7 6 5 6 4 6 5 4 5 3 3 1 4 2 3 2 2 2 2 3 3 3
12 10 10 8 10 9 10 8 8 8 8 9 9 10 8 7 7 6 5 5 6 6 6 7 6 5 5 4 4 4 4 3 2 1 3 2 2 2 3 3 3 4 4
10 9 11 9 9 8 9 8 7 6 9 8 8 8 8 8 7 6 6 6 6 6 6 6 6 6 6 6 4 3 3 3 2 2 2 2 2 3 2 2 4 2 3
10 10 9 8 8 9 9 7 7 9 8 6 7 7 6 7 6 5 5 6 6 7 7 7 7 6 6 5 3 5 5 3 3 2 2 2 2 3 3 3 3 4 3
10 9 8 9 8 7 7 6 8 8 7 7 7 7 7 5 10 11 6 6 6 6 6 5 4 7 9 11 10 8 5 3 3 2 2 4 4 2 2 2 2 4 5
8 7 7 6 7 6 6 6 6 6 5 5 5 5 6 5 11 11 9 6 7 7 7 6 6 5 6 6 8 9 8 11 8 3 4 4 4 4 4 3 3 2 3
7 7 6 6 6 6 6 6 5 4 5 4 5 6 6 7 12 10 10 7 8 8 7 7 6 6 7 6 6 6 6 5 5 3 4 4 5 6 6 4 4 5 4
6 6 5 5 5 4 5 5 4 5 5 4 4 5 5 5 10 9 6 5 7 7 6 8 8 7 11 11 5 5 5 5 5 9 11 14 14 16 12 4 5 4 3
6 5 5 5 4 4 3 4 2 2 3 3 5 4 4 5 9 10 6 3 5 5 7 7 12 7 11 12 6 5 5 4 5 4 5 8 9 9 13 8 5 5 3
5 5 5 5 4 5 4 3 1 2 3 4 5 4 5 4 7 10 9 3 3 5 5 4 3 11 14 14 12 7 5 4 6 6 5 4 5 6 5 5 6 4 3
7 6 6 5 4 4 4 3 2 2 3 2 4 3 2 4 6 8 8 8 6 4 5 2 5 13 12 11 8 10 10 8 4 3 4 5 5 6 6 5 6 4 5
6 6 4 5 4 3 3 3 3 3 1 2 3 3 2 1 2 6 6 6 6 3 3 4 10 11 12 9 13 12 8 4 4 4 4 4 4 4 5 4 4 4 3
4 5 5 4 5 3 2 2 2 2 3 1 1 2 2 1 2 2 3 3 5 3 3 4 8 10 12 8 6 7 5 5 4 3 2 2 3 4 4 4 3 4 3
3 3 4 4 5 4 2 2 2 3 3 2 2 2 3 1 1 3 3 1 2 1 2 2 3 4 3 4 4 5 5 5 5 3 4 3 3 3 4 3 3 3 3
7 6 6 5 4 3 3 4 4 3 2 2 5 4 1 3 5 5 4 2 4 1 3 2 3 3 2 2 2 3 4 4 3 3 3 2 2 3 3 4 3 3 3
4 5 4 4 4 3 3 2 3 5 6 3 5 4 5 7 6 5 3 5 7 3 3 3 3 3 2 2 2 3 1 2 1 3 2 3 2 3 4 4 3 3 4
3 3 2 4 3 3 3 2 1 1 3 3 4 3 1 6 6 5 3 5 4 6 3 2 2 3 2 2 2 1 2 3 3 3 3 2 3 3 3 3 4 2 2
4 3 3 3 3 3 3 2 1 1 1 2 2 2 3 10 9 8 10 3 3 2 2 3 2 3 2 3 2 2 3 2 2 2 2 3 3 3 3 3 2 3 2
3 7 5 3 3 4 4 3 3 2 2 2 2 1 0 2 2 2 3 2 2 2 2 3 2 2 3 3 3 2 3 3 3 3 2 3 3 2 2 2 3 3 3
3 3 4 2 3 2 2 3 3 3 2 2 1 1 3 2 2 2 2 2 2 2 3 3 2 2 2 3 3 3 3 2 2 2 2 2 2 2 1 2 2 2 2
1 2 2 2 2 3 3 2 2 2 2 1 2 4 8 3 3 3 2 2 2 2 2 3 3 2 1 3 3 3 3 3 1 2 2 2 2 2 1 2 3 3 3
2 3 3 2 2 3 3 3 3 3 1 2 2 2 3 3 3 3 2 2 2 3 2 3 3 3 2 2 1 3 4 3 3 3 4 2 2 3 2 2 1 3 3
2 2 2 2 2 3 3 3 3 4 3 3 3 2 2 2 3 3 2 2 3 3 3 2 2 3 3 2 1 1 2 2 2 3 5 4 4 3 3 3 2 2 1
1 2 2 1 2 2 3 3 3 2 2 2 2 2 2 2 3 2 2 3 3 3 3 2 2 3 3 3 2 2 1 5 4 4 3 5 6 5 4 3 2 3 4
1 1 1 1 2 2 2 2 2 2 1 1 1 2 3 3 2 2 2 2 3 2 1 1 2 3 3 3 3 3 4 4 4 5 4 4 5 4 3 3 4 3 3
Wind_Direction
89 82 85 98 120 102 82 80 99 86 76 63 71 64 54 58 41 47 46 42 54 50 39 35 39 30 20 19 15 13 358 345 288 304 352 353 3 12 12 27 24 2 341
87 89 83 83 90 82 74 69 61 76 62 65 67 66 47 47 53 44 49 50 61 54 47 46 33 26 34 28 27 16 11 354 353 286 301 327 4 355 343 341 344 0 4
73 73 69 64 65 71 72 65 58 68 66 63 68 71 56 41 54 40 42 55 59 54 46 45 23 27 27 21 14 6 359 358 360 297 290 316 311 7 340 342 349 356 345
71 79 76 65 67 67 70 65 69 71 76 70 63 65 52 41 39 31 40 48 55 57 52 54 37 35 30 14 11 5 353 351 10 7 324 312 336 342 2 350 335 332 312
92 82 77 74 71 68 62 54 56 58 58 61 74 65 55 49 34 22 40 49 51 50 42 37 39 28 27 42 24 11 10 15 358 354 345 352 327 344 10 343 326 324 300
82 79 72 71 67 64 67 61 58 52 48 53 57 62 53 45 32 39 49 58 54 53 46 40 37 29 19 24 31 58 46 22 18 22 1 0 357 334 322 316 320 352 343
69 61 64 74 84 77 77 78 80 82 84 76 77 82 68 49 34 48 52 63 62 52 43 33 31 18 17 24 31 55 63 67 52 33 13 3 356 357 324 348 355 338 283
57 57 50 53 74 77 75 75 69 64 61 54 54 54 53 38 31 48 57 67 67 55 42 32 36 18 18 31 45 52 43 37 48 48 43 51 45 18 7 347 342 316 299
54 51 46 59 70 83 81 80 69 74 68 68 71 76 74 43 41 56 72 78 80 69 61 50 55 47 38 38 51 52 40 17 22 50 74 65 51 37 28 2 10 354 318
24 22 23 23 30 60 82 76 50 70 105 113 97 87 91 73 56 59 71 96 95 85 76 62 54 45 47 45 42 38 37 353 358 35 54 44 35 26 28 32 6 356 321
3 10 16 16 17 11 5 12 73 134 121 106 101 86 82 66 60 61 66 68 98 99 84 72 63 48 46 37 38 33 18 12 35 56 47 29 27 22 15 13 22 4 346
1 12 8 3 359 7 5 322 294 138 105 98 119 91 63 80 74 59 60 68 83 88 83 73 72 68 52 40 29 26 37 48 43 54 51 33 21 7 360 3 0 17 42
3 3 354 345 347 346 350 327 322 344 142 160 137 130 121 81 69 73 63 63 63 60 71 77 88 74 63 51 45 41 33 33 44 57 45 33 20 355 346 351 358 2 21
351 349 338 348 328 326 336 344 356 323 323 327 124 145 162 212 110 61 52 44 31 45 20 101 100 88 68 64 44 34 31 36 47 51 37 356 350 2 8 352 8 346 31
295 331 357 352 353 334 318 253 252 240 193 209 245 158 130 330 89 61 48 39 358 221 164 101 84 74 43 44 43 36 31 33 44 19 40 28 11 6 0 344 18 2 60
1 5 354 342 336 332 328 322 309 297 293 192 153 160 183 116 70 32 337 9 354 180 38 98 83 76 86 63 68 49 31 27 27 37 36 40 39 25 1 352 22 45 31
341 319 337 339 342 343 350 357 323 330 353 324 142 99 123 116 75 34 25 55 13 46 83 65 104 108 106 72 67 64 67 14 18 49 51 28 33 25 30 12 356 27 359
329 345 345 348 324 332 341 338 346 291 283 294 341 106 28 118 94 44 111 66 21 22 67 110 118 121 109 104 92 89 56 39 47 35 44 36 33 54 29 16 19 6 350
359 352 329 295 329 316 316 328 336 331 294 294 322 22 116 119 88 41 39 83 126 81 74 85 101 107 101 106 103 79 88 75 64 70 33 47 24 65 31 20 7 21 11
348 358 351 337 342 348 347 347 346 315 275 259 272 265 65 58 48 40 40 65 92 96 111 104 94 96 106 120 107 101 83 59 54 51 41 45 36 61 69 38 25 41 7
352 317 319 359 9 345 336 351 338 343 347 0 29 292 162 133 125 98 102 84 114 117 120 108 100 99 102 109 106 94 86 81 67 75 63 40 42 73 48 67 71 52 29
299 300 353 24 334 355 330 325 326 333 340 87 7 31 71 75 85 94 81 74 92 114 115 119 108 103 130 149 146 123 111 108 93 94 84 66 67 70 79 61 34 29 31
359 14 19 1 356 339 3 351 358 345 12 78 55 50 40 76 81 85 90 71 77 92 82 88 108 79 38 65 106 148 138 166 194 157 135 109 77 65 58 74 50 40 35
27 24 21 357 3 1 7 354 341 11 61 67 68 70 88 91 100 96 89 82 87 73 71 84 92 114 94 68 61 71 95 123 145 160 139 122 104 74 65 73 50 54 46
33 26 21 23 22 341 348 7 15 25 49 70 83 79 70 79 80 82 79 84 82 78 55 58 78 100 117 126 113 95 108 101 111 121 104 99 101 87 77 75 58 42 35
24 41 2 356 47 23 19 14 3 24 65 45 84 102 126 123 117 104 106 103 105 84 94 67 91 114 132 146 168 179 129 127 119 118 116 106 101 76 70 80 57 57 58